When you browse on this site, cookies collect data to enhance your experience and personalize the content and advertising you see.
Visit our Privacy Policy to learn more. By continuing to use the site, you agree to this use of cookies and data.
  • In Czech Republic
  • List of Countries
  • For 7 days
  • Water Temperature
  • Weather Map
  • Weather Widgets
  • user-avatar
    Login

    Hourly Weather Rudniki

    Today, 31 May, Sunday

    Time Temperature Precipitation Wind Pressure Humidity
    00:00 +8°C° 0.5 mm 6 mps 738 mmHg 84%
    01:00 +7°C° 0 mm 6 mps 737 mmHg 88%
    02:00 +7°C° 2.3 mm 6 mps 737 mmHg 91%
    03:00 +6°C° 2.3 mm 7 mps 736 mmHg 94%
    04:00 +6°C° 2.3 mm 7 mps 736 mmHg 96%
    05:00 +8°C° 1.3 mm 7 mps 736 mmHg 96%
    06:00 +8°C° 1.3 mm 7 mps 736 mmHg 95%
    07:00 +9°C° 0 mm 7 mps 736 mmHg 95%
    08:00 +9°C° 0.1 mm 7 mps 736 mmHg 93%
    09:00 +10°C° 0.1 mm 7 mps 736 mmHg 91%
    10:00 +10°C° 0.1 mm 6 mps 736 mmHg 89%
    11:00 +11°C° 0 mm 6 mps 736 mmHg 89%
    12:00 +11°C° 0 mm 6 mps 737 mmHg 88%
    13:00 +13°C° 0 mm 4 mps 737 mmHg 89%
    14:00 +13°C° 0.1 mm 4 mps 737 mmHg 88%
    15:00 +14°C° 0.1 mm 4 mps 737 mmHg 87%
    16:00 +14°C° 0.1 mm 4 mps 737 mmHg 87%
    17:00 +14°C° 0.2 mm 4 mps 738 mmHg 87%
    18:00 +14°C° 0.2 mm 4 mps 738 mmHg 88%
    19:00 +14°C° 0.2 mm 3 mps 739 mmHg 89%
    20:00 +13°C° 0.1 mm 3 mps 739 mmHg 90%
    21:00 +12°C° 0.1 mm 3 mps 739 mmHg 91%
    22:00 +11°C° 0.1 mm 3 mps 740 mmHg 93%
    23:00 +11°C° 0 mm 3 mps 740 mmHg 93%

    Tomorrow, 1 June, Monday

    Time Temperature Precipitation Wind Pressure Humidity
    00:00 +10°C° 0 mm 3 mps 741 mmHg 94%
    01:00 +10°C° 0 mm 3 mps 741 mmHg 95%
    02:00 +9°C° 0 mm 3 mps 741 mmHg 95%
    03:00 +9°C° 0 mm 3 mps 741 mmHg 95%
    04:00 +9°C° 0 mm 3 mps 741 mmHg 95%
    05:00 +10°C° 0 mm 3 mps 741 mmHg 91%
    06:00 +10°C° 0 mm 3 mps 741 mmHg 87%
    07:00 +11°C° 0 mm 3 mps 741 mmHg 84%
    08:00 +13°C° 0 mm 4 mps 742 mmHg 75%
    09:00 +15°C° 0 mm 5 mps 742 mmHg 66%
    10:00 +16°C° 0 mm 6 mps 742 mmHg 57%
    11:00 +16°C° 0 mm 6 mps 742 mmHg 56%
    12:00 +16°C° 0 mm 6 mps 742 mmHg 55%
    13:00 +17°C° 0 mm 6 mps 742 mmHg 54%
    14:00 +16°C° 0 mm 6 mps 742 mmHg 54%
    15:00 +16°C° 0 mm 6 mps 741 mmHg 55%
    16:00 +15°C° 0 mm 6 mps 741 mmHg 56%
    17:00 +14°C° 0 mm 5 mps 741 mmHg 61%
    18:00 +13°C° 0 mm 5 mps 741 mmHg 66%
    19:00 +12°C° 0 mm 4 mps 741 mmHg 71%
    20:00 +12°C° 0 mm 3 mps 741 mmHg 71%
    21:00 +11°C° 0 mm 3 mps 741 mmHg 72%
    22:00 +12°C° 0 mm 2 mps 741 mmHg 72%
    23:00 +10°C° 0.1 mm 2 mps 741 mmHg 77%

    Day after tomorrow, 2 June, Tuesday

    Time Temperature Precipitation Wind Pressure Humidity
    00:00 +10°C° 0.1 mm 2 mps 741 mmHg 83%
    01:00 +9°C° 0.1 mm 2 mps 740 mmHg 88%
    02:00 +9°C° 0.1 mm 3 mps 740 mmHg 90%
    03:00 +9°C° 0.1 mm 3 mps 740 mmHg 91%
    04:00 +8°C° 0.1 mm 3 mps 739 mmHg 93%
    05:00 +9°C° 0.1 mm 3 mps 739 mmHg 90%
    06:00 +10°C° 0.1 mm 4 mps 739 mmHg 88%
    07:00 +11°C° 0.1 mm 4 mps 739 mmHg 85%
    08:00 +12°C° 0.2 mm 4 mps 739 mmHg 77%
    09:00 +13°C° 0.2 mm 5 mps 739 mmHg 68%
    10:00 +14°C° 0.2 mm 5 mps 738 mmHg 60%
    11:00 +15°C° 0.1 mm 5 mps 738 mmHg 58%
    12:00 +15°C° 0.1 mm 5 mps 738 mmHg 56%
    13:00 +16°C° 0.1 mm 5 mps 737 mmHg 53%
    14:00 +16°C° 0.1 mm 5 mps 737 mmHg 54%
    15:00 +16°C° 0.1 mm 5 mps 736 mmHg 54%
    16:00 +16°C° 0.1 mm 5 mps 736 mmHg 55%
    17:00 +14°C° 0.1 mm 4 mps 736 mmHg 61%
    18:00 +13°C° 0.1 mm 4 mps 736 mmHg 67%
    19:00 +12°C° 0.1 mm 3 mps 735 mmHg 73%
    20:00 +11°C° 0 mm 3 mps 735 mmHg 76%
    21:00 +10°C° 0 mm 2 mps 735 mmHg 79%
    22:00 +9°C° 0 mm 2 mps 736 mmHg 82%
    23:00 +8°C° 0 mm 2 mps 735 mmHg 85%

    3 June, Wednesday

    Time Temperature Precipitation Wind Pressure Humidity
    00:00 +8°C° 0 mm 2 mps 735 mmHg 88%
    01:00 +7°C° 0 mm 2 mps 735 mmHg 91%
    02:00 +7°C° 0 mm 2 mps 735 mmHg 92%
    03:00 +6°C° 0 mm 2 mps 734 mmHg 94%
    04:00 +7°C° 0 mm 1 mps 734 mmHg 95%
    05:00 +8°C° 0 mm 2 mps 734 mmHg 89%
    06:00 +9°C° 0 mm 2 mps 734 mmHg 84%
    07:00 +12°C° 0 mm 2 mps 734 mmHg 78%
    08:00 +13°C° 0.1 mm 2 mps 734 mmHg 71%
    09:00 +14°C° 0.1 mm 3 mps 734 mmHg 65%
    10:00 +16°C° 0.1 mm 3 mps 734 mmHg 58%
    11:00 +16°C° 0 mm 3 mps 733 mmHg 55%
    12:00 +17°C° 0 mm 3 mps 733 mmHg 51%
    13:00 +18°C° 0 mm 3 mps 733 mmHg 47%
    14:00 +18°C° 0 mm 3 mps 732 mmHg 47%
    15:00 +18°C° 0 mm 3 mps 732 mmHg 47%
    16:00 +18°C° 0 mm 2 mps 732 mmHg 47%
    17:00 +17°C° 0 mm 2 mps 732 mmHg 53%
    18:00 +15°C° 0 mm 1 mps 732 mmHg 59%
    19:00 +14°C° 0 mm 1 mps 731 mmHg 64%
    20:00 +13°C° 0 mm 1 mps 731 mmHg 65%
    21:00 +12°C° 0 mm 1 mps 732 mmHg 66%
    22:00 +10°C° 0 mm 0 mps 732 mmHg 66%
    23:00 +11°C° 0 mm 1 mps 731 mmHg 68%

    4 June, Thursday

    Time Temperature Precipitation Wind Pressure Humidity
    00:00 +10°C° 0 mm 1 mps 731 mmHg 69%
    01:00 +9°C° 0 mm 2 mps 731 mmHg 71%
    02:00 +9°C° 0 mm 2 mps 731 mmHg 72%
    03:00 +9°C° 0 mm 2 mps 731 mmHg 74%
    04:00 +9°C° 0 mm 2 mps 730 mmHg 75%
    05:00 +12°C° 0 mm 2 mps 730 mmHg 73%
    06:00 +14°C° 0 mm 2 mps 730 mmHg 71%
    07:00 +15°C° 0 mm 2 mps 730 mmHg 69%
    08:00 +17°C° 0 mm 3 mps 730 mmHg 65%
    09:00 +19°C° 0 mm 3 mps 730 mmHg 61%
    10:00 +20°C° 0 mm 3 mps 729 mmHg 57%
    11:00 +21°C° 0 mm 3 mps 729 mmHg 55%
    12:00 +22°C° 0 mm 4 mps 729 mmHg 53%
    13:00 +23°C° 0 mm 4 mps 728 mmHg 51%
    14:00 +22°C° 0.2 mm 4 mps 728 mmHg 55%
    15:00 +22°C° 0.2 mm 4 mps 727 mmHg 58%
    16:00 +22°C° 0.2 mm 4 mps 727 mmHg 62%
    17:00 +20°C° 0.3 mm 3 mps 727 mmHg 69%
    18:00 +18°C° 0.3 mm 3 mps 726 mmHg 77%
    19:00 +16°C° 0.3 mm 2 mps 726 mmHg 85%
    20:00 +16°C° 0.6 mm 3 mps 726 mmHg 88%
    21:00 +16°C° 0.6 mm 3 mps 726 mmHg 90%
    22:00 +15°C° 0.6 mm 4 mps 726 mmHg 93%
    23:00 +15°C° 1.1 mm 4 mps 726 mmHg 93%

    5 June, Friday

    Time Temperature Precipitation Wind Pressure Humidity
    00:00 +14°C° 1.1 mm 4 mps 726 mmHg 93%
    01:00 +14°C° 1.1 mm 4 mps 726 mmHg 94%
    02:00 +13°C° 0.1 mm 4 mps 726 mmHg 94%
    03:00 +13°C° 0.1 mm 5 mps 727 mmHg 94%
    04:00 +12°C° 0.1 mm 5 mps 727 mmHg 95%
    05:00 +12°C° 0 mm 5 mps 728 mmHg 90%
    06:00 +12°C° 0 mm 5 mps 729 mmHg 85%
    07:00 +13°C° 0 mm 4 mps 729 mmHg 80%
    08:00 +14°C° 0 mm 4 mps 730 mmHg 75%
    09:00 +15°C° 0 mm 4 mps 730 mmHg 70%
    10:00 +17°C° 0 mm 4 mps 730 mmHg 64%
    11:00 +18°C° 0 mm 4 mps 730 mmHg 62%
    12:00 +19°C° 0 mm 4 mps 730 mmHg 60%
    13:00 +20°C° 0 mm 4 mps 730 mmHg 58%
    14:00 +20°C° 0.1 mm 3 mps 730 mmHg 60%
    15:00 +21°C° 0.1 mm 3 mps 730 mmHg 61%
    16:00 +21°C° 0.1 mm 3 mps 730 mmHg 63%
    17:00 +20°C° 0.1 mm 3 mps 730 mmHg 69%
    18:00 +19°C° 0.1 mm 3 mps 730 mmHg 74%
    19:00 +18°C° 0.1 mm 3 mps 730 mmHg 80%
    20:00 +17°C° 0 mm 3 mps 730 mmHg 83%
    21:00 +17°C° 0 mm 3 mps 730 mmHg 87%
    22:00 +16°C° 0 mm 3 mps 730 mmHg 91%
    23:00 +14°C° 0 mm 3 mps 730 mmHg 91%
    Show more